Weather History for Prescott, AZ

Change the Weather History Date:

Friday, April 11, 2014

  Actual Average Record
Temperature  
Mean Temperature 63 °F 51 °F  
Max Temperature 78 °F 66 °F 80 °F (1988)
Min Temperature 48 °F 37 °F 25 °F (1991)
Degree Days  
Heating Degree Days 2    
Month to date heating degree days 134  
Since 1 July heating degree days 3508  
Cooling Degree Days 0    
Month to date cooling degree days 0  
Year to date cooling degree days 0  
Growing Degree Days 12 (Base 50)    
Moisture  
Dew Point 15 °F    
Average Humidity 17    
Maximum Humidity 34    
Minimum Humidity 7    
Precipitation  
Precipitation 0.00 in 0.02 in 0.18 in (1967)
Month to date precipitation T 0.23  
Year to date precipitation 0.68 3.81  
Sea Level Pressure  
Sea Level Pressure 29.87 in    
Wind  
Wind Speed 9 mph (SSW)    
Max Wind Speed 21 mph    
Max Gust Speed 27 mph    
Visibility 10 miles    
Events      
T = Trace of Precipitation, MM = Missing Value Source: NWS Daily Summary

Daily Weather History Graph

Daily Weather History Graph

Search for Another Location

Airport:

Trip Planner

Search our weather history database for the weather conditions in past years. The results will help you decide how hot, cold, wet, or windy it might be!

Date:

Astronomy

Apr. 11, 2014 Rise Set
Actual Time 6:03 AM MST 6:58 PM MST
Civil Twilight 5:37 AM MST 7:24 PM MST
Nautical Twilight 5:06 AM MST 7:55 PM MST
Astronomical Twilight 4:35 AM MST 8:26 PM MST
Moon 3:50 PM MST (4/11) 3:51 AM MST (4/11)
Length of Visible Light 13h 47m
Length of Day
12h 55m
Waxing Gibbous, 87% of the Moon is Illuminated
Apr 11
Waxing Gibbous
Apr 15
Full
Apr 22
Last Quarter
Apr 28
New
May 6
First Quarter

Hourly Weather History & Observations

Time (MST) Temp. Dew Point Humidity Pressure Visibility Wind Dir Wind Speed Gust Speed Precip Events Conditions
12:53 AM 54.0 °F 10.0 °F 17% 29.90 in 10.0 mi South 8.1 mph - N/A   Clear
1:53 AM 50.0 °F 19.9 °F 31% 29.89 in 10.0 mi South 9.2 mph - N/A   Clear
2:53 AM 51.1 °F 10.0 °F 19% 29.88 in 10.0 mi SSW 8.1 mph - N/A   Clear
3:53 AM 50.0 °F 10.0 °F 20% 29.89 in 10.0 mi South 8.1 mph - N/A   Clear
4:53 AM 53.1 °F 10.9 °F 19% 29.88 in 10.0 mi SE 4.6 mph - N/A   Clear
5:53 AM 48.0 °F 21.0 °F 34% 29.91 in 10.0 mi South 5.8 mph - N/A   Clear
6:53 AM 53.1 °F 12.9 °F 20% 29.93 in 10.0 mi South 5.8 mph - N/A   Clear
7:53 AM 55.0 °F 21.9 °F 28% 29.94 in 10.0 mi South 8.1 mph - N/A   Clear
8:53 AM 64.9 °F 17.1 °F 16% 29.94 in 10.0 mi SSE 4.6 mph - N/A   Clear
9:53 AM 71.1 °F 7.0 °F 8% 29.93 in 10.0 mi South 10.4 mph - N/A   Clear
10:53 AM 75.0 °F 8.1 °F 8% 29.91 in 10.0 mi South 11.5 mph 17.3 mph N/A   Partly Cloudy
11:53 AM 73.9 °F 5.0 °F 7% 29.91 in 10.0 mi SSW 8.1 mph 18.4 mph N/A   Clear
12:53 PM 75.9 °F 9.0 °F 8% 29.88 in 10.0 mi SSW 9.2 mph - N/A   Clear
1:53 PM 75.0 °F 12.9 °F 9% 29.87 in 10.0 mi WSW 15.0 mph 25.3 mph N/A   Scattered Clouds
2:00 PM 73.9 °F 10.9 °F 9% 30.05 in 10.0 mi WSW 9.2 mph - N/A   Mostly Cloudy
2:53 PM 75.0 °F 17.1 °F 11% 29.84 in 10.0 mi SW 17.3 mph 24.2 mph N/A   Partly Cloudy
3:53 PM 77.0 °F 18.0 °F 11% 29.81 in 10.0 mi WSW 15.0 mph 20.7 mph N/A   Partly Cloudy
4:53 PM 75.9 °F 16.0 °F 10% 29.79 in 10.0 mi SSW 15.0 mph 20.7 mph N/A   Clear
5:53 PM 75.0 °F 16.0 °F 11% 29.80 in 10.0 mi SW 16.1 mph 23.0 mph N/A   Mostly Cloudy
6:53 PM 70.0 °F 16.0 °F 13% 29.79 in 10.0 mi SW 9.2 mph - N/A   Clear
7:53 PM 66.9 °F 17.1 °F 15% 29.82 in 10.0 mi SW 5.8 mph - N/A   Mostly Cloudy
8:53 PM 64.9 °F 21.0 °F 19% 29.80 in 10.0 mi South 5.8 mph - N/A   Partly Cloudy
9:53 PM 59.0 °F 25.0 °F 27% 29.79 in 10.0 mi South 5.8 mph - N/A   Clear
10:53 PM 55.0 °F 24.1 °F 30% 29.77 in 10.0 mi South 8.1 mph - N/A   Clear
11:53 PM 55.9 °F 21.0 °F 26% 29.76 in 10.0 mi South 8.1 mph - N/A   Clear